User: anonymous   Login
Location: Unspecified
(0.0000°N, 0.0000°E)
Time: 19:50:42
(UTC+00:00)
Language:

Kosmos-2172 - Orbit

View from above orbital plane
View from above orbital plane
View from above satellite
View from above satellite

Ground track
Ground track

The orbit data is extracted from the following two-line orbital elements,

1 21796U 91081A   17269.49102538  .00000046  00000-0  32264-4 0  9992
2 21796  82.9597   8.6621 0048168 239.3403 181.3583 13.75470610296720
Epoch (UTC): 26 September 2017 11:47:04
Eccentricity: 0.0048168
inclination: 82.9597°
perigee height: 944 km
apogee height: 1015 km
right ascension of ascending node: 8.6621°
argument of perigee: 239.3403°
revolutions per day: 13.75470610
mean anomaly at epoch: 181.3583°
orbit number at epoch: 29672

The dashed part of the orbit path shows where the satellite is in the earth's shadow,  

DLR